Lid_Strength_Index
-2 -2 -2 -2 -2 -2 -2 -2 -2 -2 -2 -2 -2 -2 -2 -1 -0 -0 -1 -0 -2 -2 -2 -2 -2 -2 -2 -2 -2 -2 -2 -2 -2
-2 -2 -2 -2 -2 -2 -2 -2 -2 -2 -2 -2 -2 -2 -1 -0 -0 -0 -0 -0 -2 -2 -2 -2 -2 -2 -2 -2 -2 -2 -2 -2 -2
-2 -2 -2 -2 -2 -2 -2 -2 -2 -2 -2 -2 -2 -1 -0 -0 -0 -0 -1 -1 -2 -2 -2 -2 -2 -2 -2 -2 -2 -2 -2 -2 -2
-2 -2 -2 -2 -2 -2 -2 -2 -2 -2 -2 -2 -2 -1 -1 -1 -1 -1 -0 -1 -2 -2 -2 -2 -2 -2 -2 -2 -2 -2 -2 -2 -2
-2 -1 -2 -2 -2 -2 -2 -2 -2 -2 -1 -2 -1 -0 -0 0 -0 -1 -1 -2 -2 -2 -2 -2 -2 -2 -2 -1 -2 -2 -2 -2 -2
-0 -1 -2 -2 -2 -2 -1 -1 -1 -0 0 -0 0 0 1 1 0 -1 -1 -2 -2 -2 -2 -2 -2 -2 -2 -2 -2 -2 -2 -2 -2
0 0 -1 -1 -2 -1 -0 0 1 1 2 2 1 2 2 2 1 -0 -1 -2 -2 -2 -2 -2 -2 -2 -2 -2 -2 -2 -2 -2 -2
2 2 1 0 -0 2 2 3 4 4 4 3 3 2 3 3 2 1 -2 -2 -2 -2 -2 -2 -2 -2 -2 -2 -2 -2 -2 -2 -2
3 2 2 2 1 1 2 2 3 4 4 3 3 3 3 3 3 2 0 -2 -2 -2 -2 -2 -2 -2 -2 -2 -2 -2 -2 -2 -2
3 3 3 3 3 3 2 2 2 2 3 3 4 3 3 2 3 3 1 -1 -2 -2 -2 -2 -2 -2 -2 -2 -2 -2 -2 -2 -2
4 4 4 4 5 4 2 2 3 2 2 2 2 2 2 1 2 2 0 -2 -2 -2 -2 -2 -2 -2 -2 -2 -2 -1 -2 -2 -2
6 6 6 5 4 4 3 2 3 4 4 4 3 2 3 2 2 2 2 1 -1 -2 -2 -2 -2 -2 -1 -1 -1 -1 -1 -1 -1
9 8 8 6 6 6 5 3 4 5 4 4 3 3 3 4 2 3 3 2 2 0 -1 -1 -1 -1 -1 -1 -1 0 0 -0 -0
11 10 9 8 8 8 7 5 6 6 6 4 4 4 4 4 3 4 4 4 4 3 2 2 0 -0 -0 -1 -2 -1 -0 -0 -0
12 11 11 9 10 9 9 7 7 8 8 5 4 4 3 4 5 5 5 5 4 4 4 4 4 2 1 1 0 -0 -1 -1 -2
14 13 12 11 11 11 10 9 8 8 8 7 4 4 4 5 5 5 6 6 6 5 5 5 6 7 5 3 2 1 0 -0 -1
14 14 13 13 12 12 12 11 10 9 9 10 8 6 6 4 6 6 7 7 6 5 5 7 8 9 9 7 5 4 2 1 0
15 14 14 14 13 14 13 13 13 12 10 10 9 8 8 7 7 8 8 9 9 7 7 8 8 9 11 10 9 6 5 3 2
16 16 15 15 14 15 14 14 14 12 13 11 10 11 12 11 9 8 10 9 11 10 9 10 10 10 11 11 9 8 6 5 3
17 17 16 16 15 15 16 16 16 15 14 14 13 11 12 13 12 12 13 11 11 11 10 12 12 13 13 13 12 9 8 6 5